When you browse on this site, cookies collect data to enhance your experience and personalize the content and advertising you see.
Visit our Privacy Policy to learn more. By continuing to use the site, you agree to this use of cookies and data.
  • In Österreich
  • Länderverzeichnis
  • Für 7 Tage
  • Wassertemperatur
  • Satellitenkarten
  • Wetterkarte
  • News
  • Widgets
  • user-avatar
    Anmelden

    Stündliche Wetter Brest

    Heute, 14 Dezember, Freitag

    Zeit Temperatur Niederschläge Wind Luftdruck Luftfeuchtigkeit
    00:00 -1°C° 0.1 mm 3 m/S 753 mmHg 86%
    01:00 -1°C° 0.1 mm 3 m/S 754 mmHg 87%
    02:00 -1°C° 0 mm 3 m/S 754 mmHg 85%
    03:00 -1°C° 0.1 mm 3 m/S 754 mmHg 86%
    04:00 -1°C° 0.1 mm 3 m/S 754 mmHg 86%
    05:00 -1°C° 0.1 mm 3 m/S 754 mmHg 87%
    06:00 -1°C° 0.1 mm 3 m/S 754 mmHg 87%
    07:00 -1°C° 0.1 mm 3 m/S 754 mmHg 88%
    08:00 -1°C° 0 mm 2 m/S 755 mmHg 88%
    09:00 -1°C° 0 mm 2 m/S 755 mmHg 87%
    10:00 -1°C° 0 mm 2 m/S 755 mmHg 87%
    11:00 -1°C° 0 mm 3 m/S 756 mmHg 86%
    12:00 0°C° 0 mm 3 m/S 756 mmHg 84%
    13:00 0°C° 0 mm 3 m/S 756 mmHg 83%
    14:00 0°C° 0 mm 3 m/S 756 mmHg 82%
    15:00 +1°C° 0 mm 2 m/S 756 mmHg 84%
    16:00 -1°C° 0 mm 2 m/S 756 mmHg 87%
    17:00 -1°C° 0 mm 2 m/S 757 mmHg 89%
    18:00 -1°C° 0 mm 2 m/S 757 mmHg 90%
    19:00 -1°C° 0 mm 2 m/S 757 mmHg 91%
    20:00 -2°C° 0 mm 2 m/S 757 mmHg 92%
    21:00 -2°C° 0 mm 2 m/S 757 mmHg 92%
    22:00 -2°C° 0 mm 2 m/S 758 mmHg 92%
    23:00 -2°C° 0 mm 2 m/S 758 mmHg 93%

    Morgen, 15 Dezember, Samstag

    Zeit Temperatur Niederschläge Wind Luftdruck Luftfeuchtigkeit
    00:00 -2°C° 0 mm 2 m/S 758 mmHg 92%
    01:00 -2°C° 0 mm 2 m/S 758 mmHg 92%
    02:00 -2°C° 0 mm 2 m/S 758 mmHg 91%
    03:00 -2°C° 0 mm 2 m/S 758 mmHg 91%
    04:00 -2°C° 0 mm 2 m/S 759 mmHg 90%
    05:00 -2°C° 0 mm 2 m/S 759 mmHg 90%
    06:00 -2°C° 0 mm 2 m/S 759 mmHg 90%
    07:00 -2°C° 0 mm 3 m/S 759 mmHg 90%
    08:00 -2°C° 0 mm 3 m/S 759 mmHg 90%
    09:00 -2°C° 0 mm 3 m/S 759 mmHg 88%
    10:00 -2°C° 0 mm 3 m/S 760 mmHg 85%
    11:00 -1°C° 0 mm 3 m/S 760 mmHg 83%
    12:00 -2°C° 0 mm 4 m/S 760 mmHg 81%
    13:00 -2°C° 0 mm 4 m/S 759 mmHg 79%
    14:00 -2°C° 0 mm 4 m/S 759 mmHg 77%
    15:00 -2°C° 0 mm 4 m/S 759 mmHg 77%
    16:00 -2°C° 0 mm 4 m/S 759 mmHg 78%
    17:00 -3°C° 0 mm 4 m/S 759 mmHg 78%
    18:00 -3°C° 0 mm 4 m/S 759 mmHg 78%
    19:00 -4°C° 0 mm 5 m/S 759 mmHg 77%
    20:00 -4°C° 0 mm 5 m/S 759 mmHg 77%
    21:00 -4°C° 0 mm 5 m/S 759 mmHg 76%
    22:00 -4°C° 0 mm 5 m/S 759 mmHg 76%
    23:00 -4°C° 0 mm 5 m/S 759 mmHg 75%

    übermorgen, 16 Dezember, Sonntag

    Zeit Temperatur Niederschläge Wind Luftdruck Luftfeuchtigkeit
    00:00 -4°C° 0 mm 5 m/S 758 mmHg 76%
    01:00 -4°C° 0 mm 6 m/S 758 mmHg 76%
    02:00 -4°C° 0 mm 6 m/S 758 mmHg 76%
    03:00 -4°C° 0.1 mm 6 m/S 757 mmHg 77%
    04:00 -4°C° 0.1 mm 6 m/S 757 mmHg 78%
    05:00 -4°C° 0.1 mm 7 m/S 757 mmHg 79%
    06:00 -6°C° 0.2 mm 7 m/S 756 mmHg 80%
    07:00 -6°C° 0.2 mm 7 m/S 756 mmHg 81%
    08:00 -6°C° 0.2 mm 7 m/S 756 mmHg 81%
    09:00 -6°C° 0.2 mm 7 m/S 756 mmHg 81%
    10:00 -6°C° 0.2 mm 7 m/S 756 mmHg 81%
    11:00 -6°C° 0.2 mm 7 m/S 756 mmHg 81%
    12:00 -6°C° 0.1 mm 7 m/S 755 mmHg 81%
    13:00 -6°C° 0.1 mm 7 m/S 755 mmHg 81%
    14:00 -6°C° 0.1 mm 7 m/S 755 mmHg 82%
    15:00 -6°C° 0.4 mm 7 m/S 754 mmHg 84%
    16:00 -6°C° 0.4 mm 7 m/S 754 mmHg 86%
    17:00 -5°C° 0.4 mm 6 m/S 754 mmHg 88%
    18:00 -5°C° 0.5 mm 6 m/S 754 mmHg 89%
    19:00 -5°C° 0.5 mm 6 m/S 754 mmHg 89%
    20:00 -5°C° 0.5 mm 6 m/S 754 mmHg 90%
    21:00 -5°C° 0.3 mm 6 m/S 754 mmHg 90%
    22:00 -4°C° 0.3 mm 5 m/S 754 mmHg 91%
    23:00 -4°C° 0.3 mm 5 m/S 754 mmHg 91%

    17 Dezember, Montag

    Zeit Temperatur Niederschläge Wind Luftdruck Luftfeuchtigkeit
    00:00 -4°C° 0.1 mm 5 m/S 754 mmHg 91%
    01:00 -4°C° 0.1 mm 5 m/S 754 mmHg 92%
    02:00 -3°C° 0.1 mm 4 m/S 754 mmHg 92%
    03:00 -3°C° 0 mm 4 m/S 754 mmHg 92%
    04:00 -3°C° 0 mm 4 m/S 754 mmHg 93%
    05:00 -3°C° 0 mm 4 m/S 754 mmHg 93%
    06:00 -2°C° 0 mm 3 m/S 754 mmHg 93%
    07:00 -1°C° 0 mm 3 m/S 754 mmHg 94%
    08:00 -1°C° 0 mm 3 m/S 754 mmHg 94%
    09:00 -1°C° 0 mm 3 m/S 754 mmHg 94%
    10:00 -1°C° 0 mm 3 m/S 754 mmHg 94%
    11:00 -1°C° 0 mm 3 m/S 754 mmHg 94%
    12:00 -1°C° 0 mm 3 m/S 754 mmHg 94%
    13:00 -1°C° 0 mm 2 m/S 755 mmHg 94%
    14:00 -1°C° 0 mm 2 m/S 755 mmHg 93%
    15:00 -1°C° 0 mm 2 m/S 755 mmHg 94%
    16:00 +1°C° 0 mm 1 m/S 755 mmHg 94%
    17:00 +1°C° 0 mm 1 m/S 755 mmHg 95%
    18:00 0°C° 0 mm 1 m/S 756 mmHg 95%
    19:00 0°C° 0 mm 1 m/S 756 mmHg 95%
    20:00 0°C° 0 mm 1 m/S 756 mmHg 95%
    21:00 0°C° 0 mm 1 m/S 757 mmHg 95%
    22:00 0°C° 0 mm 1 m/S 757 mmHg 95%
    23:00 0°C° 0 mm 1 m/S 757 mmHg 95%

    18 Dezember, Dienstag

    Zeit Temperatur Niederschläge Wind Luftdruck Luftfeuchtigkeit
    00:00 0°C° 0 mm 1 m/S 757 mmHg 94%
    01:00 0°C° 0 mm 1 m/S 758 mmHg 94%
    02:00 0°C° 0 mm 1 m/S 758 mmHg 94%
    03:00 0°C° 0 mm 1 m/S 758 mmHg 94%
    04:00 0°C° 0 mm 1 m/S 758 mmHg 95%
    05:00 -1°C° 0 mm 1 m/S 758 mmHg 95%
    06:00 -1°C° 0 mm 1 m/S 758 mmHg 95%
    07:00 -1°C° 0 mm 1 m/S 759 mmHg 95%
    08:00 -1°C° 0 mm 1 m/S 759 mmHg 94%
    09:00 0°C° 0 mm 1 m/S 759 mmHg 93%
    10:00 -2°C° 0 mm 2 m/S 759 mmHg 91%
    11:00 -2°C° 0 mm 2 m/S 759 mmHg 90%
    12:00 -2°C° 0 mm 2 m/S 759 mmHg 89%
    13:00 -1°C° 0 mm 2 m/S 759 mmHg 88%
    14:00 -1°C° 0 mm 2 m/S 759 mmHg 87%
    15:00 -1°C° 0 mm 2 m/S 759 mmHg 88%
    16:00 0°C° 0 mm 1 m/S 759 mmHg 88%
    17:00 0°C° 0 mm 1 m/S 759 mmHg 89%
    18:00 -2°C° 0 mm 2 m/S 759 mmHg 89%
    19:00 -2°C° 0 mm 2 m/S 759 mmHg 90%
    20:00 -2°C° 0 mm 2 m/S 759 mmHg 90%
    21:00 -2°C° 0 mm 2 m/S 759 mmHg 90%
    22:00 -3°C° 0 mm 2 m/S 759 mmHg 90%
    23:00 -3°C° 0 mm 2 m/S 759 mmHg 90%

    19 Dezember, Mittwoch

    Zeit Temperatur Niederschläge Wind Luftdruck Luftfeuchtigkeit
    00:00 -3°C° 0 mm 2 m/S 759 mmHg 91%
    01:00 -3°C° 0 mm 2 m/S 759 mmHg 91%
    02:00 -3°C° 0 mm 2 m/S 759 mmHg 92%
    03:00 -3°C° 0 mm 2 m/S 758 mmHg 92%
    04:00 -3°C° 0 mm 2 m/S 758 mmHg 92%
    05:00 -4°C° 0 mm 3 m/S 758 mmHg 92%
    06:00 -4°C° 0 mm 3 m/S 758 mmHg 91%
    07:00 -4°C° 0 mm 3 m/S 758 mmHg 91%
    08:00 -4°C° 0 mm 3 m/S 757 mmHg 90%
    09:00 -4°C° 0 mm 4 m/S 757 mmHg 90%
    10:00 -4°C° 0 mm 4 m/S 757 mmHg 89%
    11:00 -4°C° 0 mm 4 m/S 757 mmHg 88%
    12:00 -4°C° 0 mm 4 m/S 757 mmHg 88%
    13:00 -4°C° 0 mm 4 m/S 756 mmHg 88%
    14:00 -4°C° 0 mm 4 m/S 756 mmHg 87%
    15:00 -4°C° 0 mm 4 m/S 756 mmHg 88%
    16:00 -5°C° 0 mm 5 m/S 756 mmHg 88%
    17:00 -5°C° 0 mm 5 m/S 755 mmHg 89%
    18:00 -5°C° 0 mm 5 m/S 755 mmHg 89%
    19:00 -5°C° 0 mm 5 m/S 755 mmHg 89%
    20:00 -5°C° 0 mm 5 m/S 755 mmHg 89%
    21:00 -5°C° 0 mm 5 m/S 755 mmHg 89%
    22:00 -5°C° 0 mm 5 m/S 755 mmHg 89%
    23:00 -4°C° 0 mm 4 m/S 754 mmHg 90%
    Mehr zeigen